RH
100 88 100 100 100 100 48 42 28 22 22 20 20 18 16 15 15 14 12 12 12 13 18 16 12 10 10 8 8 7 6 6 7 8 11 12 14 15 17 19 20 20 20 20 18 14 13 10 10 10 10 10 10 11
95 100 100 100 100 39 25 23 20 20 20 19 17 15 15 15 14 12 12 13 14 15 14 11 8 7 6 6 6 6 5 5 5 6 6 8 11 13 16 17 19 20 19 20 16 14 11 12 11 11 12 13 14 14
96 97 100 100 54 22 19 19 19 20 18 17 16 15 14 14 12 12 13 14 14 12 10 6 6 6 6 7 6 5 4 5 5 6 6 7 10 14 16 18 18 19 20 18 16 12 12 11 12 13 14 16 17 18
100 100 98 60 21 18 19 18 18 17 16 15 14 14 13 13 13 14 14 12 9 7 7 6 6 9 9 6 5 4 5 5 5 6 6 8 10 13 16 19 19 19 18 18 14 14 14 15 15 17 18 20 24 27
100 99 74 21 18 18 18 17 16 15 14 12 12 13 12 13 15 13 10 7 7 8 9 9 10 11 6 5 4 5 5 6 6 7 9 11 13 15 17 19 20 20 19 16 16 16 18 21 24 29 31 30 34 45
99 27 20 18 18 18 17 16 15 13 10 10 10 11 13 13 10 8 7 8 8 10 10 12 11 7 5 5 6 6 6 6 7 9 11 13 15 18 20 20 22 20 18 18 20 26 31 34 36 49 60 67 63 62
24 19 18 18 17 17 15 14 11 10 10 9 10 12 10 7 7 8 8 9 9 10 12 11 8 6 6 7 8 8 8 9 10 12 13 16 18 21 23 24 20 21 23 27 36 46 51 62 59 70 61 64 68 71
18 18 18 17 16 15 14 10 10 9 9 10 9 6 6 7 7 8 8 9 9 10 11 10 7 7 8 9 10 10 11 12 13 15 17 20 24 25 23 20 25 31 39 50 65 76 80 76 72 72 75 80 78 73
18 17 17 16 16 12 9 9 9 9 9 6 5 7 7 7 7 8 8 9 9 11 10 8 8 9 11 12 13 15 16 16 19 21 23 27 24 21 22 30 41 62 74 80 91 94 80 83 89 84 80 75 70 63
17 17 17 16 12 9 8 8 8 8 5 6 7 7 7 7 7 8 8 9 10 10 8 8 10 12 12 14 16 17 18 20 21 28 26 22 22 26 35 55 78 96 99 98 95 80 90 94 94 90 89 94 82 60
17 16 16 11 9 8 9 8 6 5 6 7 6 7 7 7 8 8 8 10 10 8 8 10 12 14 16 17 18 20 26 30 29 22 20 22 26 39 56 80 98 98 98 96 88 89 95 94 98 97 99 93 78 60
16 15 11 10 9 10 9 6 6 7 6 6 6 6 7 8 8 8 10 11 9 9 10 12 13 15 18 24 31 31 26 23 20 20 22 26 38 52 66 98 100 93 80 88 90 90 97 99 98 93 91 82 69 55
16 12 9 8 10 9 6 6 7 6 6 6 6 7 7 8 9 11 11 11 11 12 16 20 27 31 32 29 24 22 21 18 19 22 24 31 44 61 71 86 100 98 91 97 94 94 99 98 97 97 96 91 81 66
13 11 9 10 9 6 6 6 6 5 5 5 7 8 9 9 11 13 14 15 18 21 24 25 24 22 22 22 19 17 16 18 22 24 28 38 57 69 82 99 100 100 100 98 96 100 98 97 97 98 97 94 87 70
12 10 11 11 8 6 7 6 6 5 5 7 8 9 10 12 14 15 17 20 22 23 21 19 20 21 19 17 16 16 18 20 24 27 36 48 68 93 100 100 100 100 100 100 98 99 98 99 99 99 96 90 74 73
12 12 12 10 7 7 7 6 6 6 8 8 10 12 12 15 17 19 20 20 19 18 18 18 16 14 14 16 17 18 20 24 26 34 43 53 67 77 87 91 99 99 99 98 99 98 100 100 99 97 93 80 73 84
18 16 12 9 8 8 7 7 7 7 8 11 13 13 15 16 18 20 20 19 17 18 16 13 14 14 17 19 22 22 24 28 33 37 47 58 74 85 92 92 96 97 94 100 97 96 95 98 96 96 88 75 75 88
18 15 12 10 9 8 8 8 8 8 10 13 14 16 18 18 21 21 18 17 18 15 13 14 18 20 21 23 24 25 28 33 38 44 49 53 67 80 84 86 88 94 99 97 96 95 97 98 97 92 80 70 79 92
18 14 12 11 10 9 10 10 9 11 12 14 16 18 20 20 21 20 19 19 16 14 18 22 23 24 25 27 30 31 34 40 47 56 59 62 69 76 77 85 98 100 98 96 97 97 94 93 90 80 71 73 87 91
18 14 12 12 12 10 11 11 10 11 12 14 17 20 22 22 22 21 20 17 16 20 25 26 26 27 29 32 34 36 38 41 49 57 67 76 80 90 96 99 99 96 92 94 93 94 94 91 82 74 73 86 94 91
18 15 14 13 13 12 11 12 12 12 12 14 15 17 20 22 20 18 17 17 22 25 27 26 28 30 35 42 47 50 52 56 59 64 71 76 84 90 94 90 92 95 96 95 96 96 91 84 74 72 83 93 95 95
18 16 15 14 15 13 12 13 13 13 13 14 15 16 17 18 17 16 20 23 26 27 28 29 33 44 55 67 77 81 81 81 81 80 80 82 85 88 90 93 97 99 96 94 93 87 80 71 74 85 91 96 98 95
18 17 17 17 18 14 13 13 14 14 15 16 16 16 17 17 19 22 24 27 30 34 34 40 51 66 83 90 94 91 90 91 93 94 96 97 97 98 98 99 97 97 93 84 76 72 69 74 84 94 99 98 96 90
20 19 19 21 20 17 15 15 16 16 17 18 18 19 20 21 24 27 30 34 37 42 46 55 71 82 83 92 99 98 97 96 97 96 97 97 96 96 95 91 83 78 72 65 63 64 76 88 93 96 95 93 85 79
20 20 22 26 25 20 18 17 18 18 18 19 20 21 22 24 26 28 31 36 40 45 58 66 72 81 89 92 93 95 96 96 97 97 92 90 88 84 79 71 64 60 58 62 74 86 92 91 90 88 87 81 75 72
21 21 24 29 30 24 20 20 22 21 22 22 23 25 24 25 26 26 28 32 36 45 61 76 84 88 88 89 97 96 90 83 82 82 78 74 70 66 60 53 53 63 74 83 88 91 91 90 88 83 76 71 69 68
22 24 26 31 36 29 22 20 21 22 23 25 25 25 26 29 32 32 37 44 53 61 68 72 75 78 81 83 77 71 68 68 66 60 57 54 52 54 58 61 67 74 80 84 87 86 84 80 74 69 69 68 67 63
24 26 32 36 40 36 28 24 22 22 24 24 25 23 24 26 30 30 37 44 51 56 59 62 59 54 53 52 50 48 45 46 46 50 54 57 60 64 70 74 78 82 79 73 68 64 63 63 64 66 67 64 56 52
26 29 35 41 44 45 41 34 30 27 24 24 25 26 25 27 26 28 31 36 38 40 39 38 37 41 41 42 43 46 50 56 65 76 82 84 86 85 84 82 78 71 67 65 65 65 66 67 65 62 57 54 49 40
28 30 37 43 47 52 57 60 56 52 42 31 29 28 27 28 30 32 34 35 35 35 37 40 42 44 46 50 57 67 80 88 89 87 85 81 76 70 67 64 62 61 62 64 66 66 66 63 57 52 49 41 33 26
29 35 43 50 53 53 53 56 62 69 72 73 75 76 75 76 74 75 74 73 73 72 74 78 83 86 87 89 89 87 83 75 71 66 61 58 58 58 56 56 59 64 66 67 66 64 59 52 45 40 31 23 18 14
32 39 48 59 66 71 72 71 70 72 76 76 76 79 81 84 85 88 86 86 87 87 85 82 78 76 73 70 67 64 61 58 55 53 54 57 58 58 61 64 65 63 60 57 49 42 37 30 22 17 15 12 11 10
32 38 47 60 71 78 84 84 83 82 84 88 89 90 90 88 88 89 86 83 82 82 80 78 75 72 67 64 62 59 58 58 59 60 61 64 67 67 64 60 53 46 37 30 24 20 16 14 12 11 10 9 9 9
Wind_Speed
124 124 128 132 139 135 125 120 117 115 109 105 104 104 103 102 103 104 101 100 96 85 85 91 94 89 85 81 76 74 72 73 73 76 80 81 79 77 71 69 70 69 71 72 73 68 62 56 50 47 42 39 34 30
133 135 132 140 135 126 120 118 114 107 106 103 103 104 103 104 105 102 95 93 93 92 94 92 85 79 75 71 68 68 64 61 63 62 63 65 69 70 70 69 67 67 67 68 65 59 52 47 39 33 29 28 26 24
139 137 143 136 130 123 118 113 109 107 104 102 103 104 106 104 100 97 94 95 98 95 86 83 73 71 67 66 63 61 58 54 51 52 54 53 56 60 63 65 63 63 62 61 55 49 40 33 27 24 20 19 17 16
144 143 149 132 124 118 113 110 107 105 104 103 103 105 102 97 95 96 99 100 91 81 75 73 67 63 62 60 56 53 51 49 46 45 44 44 46 50 53 56 55 53 52 48 44 36 29 24 21 17 15 14 12 12
144 144 132 124 116 113 109 108 106 106 105 105 102 98 94 93 97 101 95 85 77 72 69 66 62 59 57 54 50 47 44 41 39 36 35 34 36 39 40 42 43 41 39 35 29 24 20 17 15 12 11 10 7 9
154 130 122 116 112 109 108 107 107 108 106 100 95 92 94 97 95 87 81 73 70 67 64 61 57 54 49 45 42 39 35 33 30 28 27 28 27 28 29 31 31 30 28 22 19 16 14 14 11 9 9 10 11 12
127 120 115 112 109 108 108 108 109 105 98 94 93 97 93 85 79 73 70 67 63 60 58 55 51 46 41 37 33 30 27 25 22 21 20 19 20 20 21 23 22 19 15 13 11 11 10 11 11 9 10 13 17 17
119 114 110 109 108 108 109 108 101 96 94 96 93 86 78 73 70 68 65 60 57 54 51 47 43 38 33 29 26 23 21 19 17 15 15 15 15 16 17 15 12 9 9 7 7 5 7 10 10 13 15 17 16 16
112 109 108 107 107 108 105 99 96 94 94 88 81 74 70 68 65 61 57 52 49 47 43 39 34 28 26 23 21 19 17 15 13 13 12 12 13 13 10 7 6 6 6 6 5 4 8 12 14 15 16 17 18 19
107 106 105 105 107 102 96 94 94 91 84 76 72 69 67 62 57 52 47 46 43 40 35 30 26 23 21 19 18 17 14 13 12 12 12 12 10 8 6 7 9 9 10 8 5 7 10 14 15 15 17 18 19 21
104 102 104 104 98 95 94 95 88 80 74 71 68 64 59 52 47 44 41 39 35 32 28 24 21 19 17 16 15 14 12 13 13 13 10 8 8 7 9 12 14 15 11 9 6 9 13 13 15 16 17 19 21 24
100 100 100 95 93 92 93 84 77 73 70 65 59 53 47 43 40 37 34 32 29 26 22 19 16 15 14 14 15 15 15 15 13 10 8 8 8 11 13 15 15 15 9 6 7 11 12 13 16 17 19 22 24 27
99 99 92 90 89 90 80 73 69 65 59 52 47 42 39 37 33 30 28 26 22 19 16 14 15 16 17 17 18 18 17 14 10 8 7 8 10 13 14 15 12 10 7 8 11 14 12 15 18 20 23 25 28 31
96 91 89 88 89 79 71 65 57 51 46 42 39 37 34 31 27 26 24 21 18 17 17 18 18 19 19 19 19 16 13 10 8 7 7 9 11 12 13 13 10 11 12 13 15 13 14 18 21 23 25 28 31 34
89 87 87 88 82 71 64 55 49 44 40 36 33 31 28 26 25 23 20 18 17 18 19 20 20 20 20 18 15 13 11 7 5 5 7 9 12 14 16 18 16 14 14 16 17 15 17 20 23 26 28 31 33 34
86 86 87 86 74 64 57 49 43 38 33 31 29 25 25 24 22 20 19 19 19 20 21 21 20 19 17 14 12 9 6 4 3 5 8 10 13 14 14 15 15 16 16 17 16 17 19 22 25 28 31 33 36 35
81 85 85 79 68 60 53 46 39 34 33 29 26 25 24 23 22 20 20 21 22 22 21 19 17 15 12 8 7 5 3 2 2 3 6 9 11 14 15 15 13 14 16 17 17 19 22 25 28 31 34 36 38 36
80 83 81 71 62 55 49 44 38 35 31 28 26 25 25 24 23 24 24 24 24 22 19 15 13 9 7 5 4 2 1 2 0 2 4 8 10 11 11 12 14 15 17 16 20 22 25 28 31 34 37 39 39 37
78 79 74 65 57 52 47 44 39 34 30 29 27 26 25 25 25 26 25 24 22 18 16 13 9 6 3 1 2 2 2 2 0 1 3 5 7 10 12 12 13 16 17 20 22 26 29 31 34 38 40 41 41 40
77 77 69 60 54 50 46 44 39 35 31 30 28 27 26 26 26 26 24 22 19 16 14 10 6 2 2 3 4 3 3 2 2 3 4 5 6 8 11 13 15 17 20 23 27 29 32 35 38 40 42 43 42 42
76 73 65 56 51 48 46 43 38 35 33 30 29 28 27 25 25 24 22 19 14 12 10 8 5 3 4 5 4 4 4 4 4 4 6 8 10 12 13 15 17 20 24 27 29 32 35 38 41 43 43 43 43 43
76 70 62 54 48 46 43 40 37 34 32 30 29 28 26 25 24 21 18 14 13 12 10 7 4 3 3 4 4 3 3 3 4 5 7 9 11 13 16 19 23 25 28 31 33 34 38 42 43 43 43 44 44 44
73 66 57 51 46 43 41 38 34 32 30 28 27 25 24 22 19 15 13 11 11 9 8 5 3 3 2 2 4 5 6 7 9 11 13 14 17 19 22 24 28 30 32 33 36 38 41 43 43 43 43 44 44 46
70 61 54 48 42 41 40 37 35 30 28 25 23 22 20 18 14 12 11 9 8 7 6 5 5 4 4 6 8 10 12 14 16 18 19 21 23 25 27 29 31 33 35 38 40 42 42 42 43 44 45 46 47 49
63 55 47 41 40 41 40 38 33 29 25 23 21 19 18 16 13 12 12 12 9 8 8 7 8 10 12 13 14 16 18 20 22 23 25 26 28 29 31 33 35 37 39 41 43 43 43 44 46 47 48 49 50 51
58 49 43 38 36 35 35 34 33 28 24 21 20 19 18 17 15 14 14 13 11 10 10 11 12 13 14 16 18 20 22 24 26 27 29 30 32 33 34 36 38 40 41 43 44 46 47 49 50 49 50 50 51 51
52 45 41 35 33 33 32 32 29 27 23 20 20 18 17 15 15 15 14 13 12 12 13 14 15 16 18 20 23 24 26 27 29 30 32 34 35 37 38 40 42 43 44 45 47 48 49 49 49 49 49 50 51 53
47 42 37 33 31 31 32 30 28 27 25 24 23 21 20 19 18 18 16 17 16 16 17 19 22 23 24 26 27 29 31 32 34 35 37 38 39 40 41 43 44 45 46 47 47 47 47 47 47 48 51 52 54 55
43 39 35 32 31 30 30 30 30 30 29 28 28 27 25 24 23 23 23 24 24 24 25 27 28 29 30 32 33 35 36 38 38 39 40 42 43 44 45 46 46 47 47 47 46 46 47 49 51 53 54 55 55 56
41 38 34 32 31 30 30 30 30 31 31 30 31 31 31 32 33 32 32 32 33 33 34 35 36 37 38 39 39 39 40 41 42 43 44 44 45 46 47 47 47 47 46 46 47 49 52 54 55 55 56 57 57 57
40 37 35 33 32 31 31 30 30 30 31 31 32 32 33 33 33 34 36 36 37 38 38 39 39 41 42 42 43 43 43 44 45 45 46 47 46 46 45 45 45 46 48 50 53 55 57 57 57 57 57 57 56 55
38 36 34 33 33 33 34 34 34 34 34 34 34 35 36 36 37 38 39 40 41 41 42 43 43 44 44 45 45 45 46 46 46 47 46 45 45 45 46 48 50 52 54 56 57 58 58 56 55 55 55 53 50 47
38 36 35 34 34 34 35 36 36 36 35 35 37 38 38 38 38 39 40 41 41 42 42 42 43 43 44 43 44 44 44 44 45 46 46 47 48 51 53 55 57 58 58 58 57 55 54 54 53 51 48 47 46 43
Wind_Direction
317 315 315 313 311 311 312 311 312 311 312 311 311 309 309 308 308 307 307 306 308 308 304 302 300 301 300 299 296 292 288 285 283 281 277 275 273 273 274 276 280 286 291 297 301 303 304 303 300 296 297 295 296 294
318 316 315 312 314 314 314 312 312 312 311 312 310 310 309 308 308 308 309 308 308 308 307 305 304 304 303 301 297 295 292 290 287 284 280 276 273 272 272 276 281 287 292 298 303 305 305 302 298 296 297 298 299 300
317 314 317 316 315 313 313 313 312 311 311 311 311 309 309 309 309 310 310 309 309 309 308 305 307 305 303 300 298 296 297 294 289 283 280 278 274 272 272 275 282 290 295 300 303 305 302 301 304 305 308 308 307 310
314 315 316 315 313 313 312 313 312 312 312 311 311 310 310 310 311 310 310 310 310 310 308 306 308 305 300 301 301 301 298 293 290 286 283 280 277 275 276 279 285 291 297 300 302 301 304 308 311 318 325 328 333 335
314 315 314 314 314 313 312 312 312 313 311 311 312 311 312 311 311 310 309 310 309 310 308 309 309 305 304 304 304 301 297 294 290 288 285 282 279 280 282 285 290 293 297 297 296 301 310 315 320 325 325 325 346 356
314 314 314 313 314 313 313 313 313 312 313 314 314 313 313 312 309 309 308 310 310 309 309 309 306 307 307 306 302 301 299 296 293 289 285 281 283 284 288 290 291 294 294 293 298 307 307 308 313 323 344 353 348 337
314 314 314 313 314 314 314 314 314 315 315 316 315 313 312 310 308 309 309 309 309 309 308 308 309 309 309 305 304 304 300 299 294 289 288 287 287 290 291 291 291 288 286 289 296 297 304 317 314 313 331 342 340 341
314 315 314 315 315 315 314 315 316 316 316 314 313 313 312 310 311 310 309 309 308 308 308 309 310 310 307 307 306 306 305 302 298 296 292 292 294 293 289 285 277 272 270 275 272 286 313 308 317 328 333 334 333 334
314 315 315 316 315 315 315 318 317 316 317 314 315 313 312 313 312 310 309 308 308 308 310 311 310 311 310 311 312 311 305 304 303 298 298 298 296 284 274 254 231 223 232 229 238 285 307 327 327 328 329 332 336 335
315 316 317 316 316 317 319 319 319 318 316 316 314 313 312 312 311 311 308 308 311 311 313 313 312 313 313 316 313 307 310 309 309 310 302 291 273 253 223 198 194 205 211 223 258 296 320 323 329 330 330 333 331 328
316 318 317 317 319 320 320 320 318 317 316 314 313 312 311 311 311 310 311 313 314 315 316 318 317 317 317 315 312 315 318 313 309 303 287 265 242 211 196 198 199 206 218 240 278 308 313 320 329 328 325 323 322 324
319 319 318 320 321 321 321 319 318 316 314 313 312 313 313 311 313 314 315 315 316 320 321 322 325 324 323 325 318 315 309 308 306 293 266 242 214 203 200 206 223 223 248 271 291 301 303 319 322 323 323 323 324 329
320 319 320 322 323 323 322 320 318 315 313 314 315 315 314 316 317 316 316 319 323 326 329 331 330 325 321 317 311 309 306 306 296 273 250 223 210 206 208 210 227 244 266 275 291 297 301 313 320 324 323 324 327 329
321 320 322 325 326 326 324 322 319 318 320 320 320 320 322 322 319 319 320 324 324 325 327 326 324 320 315 313 310 308 304 297 280 256 236 214 210 207 210 209 221 239 253 269 291 295 304 316 321 323 322 323 323 324
321 322 325 328 328 328 327 326 326 327 329 327 326 327 325 323 325 325 324 324 327 329 326 323 320 317 315 312 310 306 299 287 262 233 216 209 201 201 207 213 227 240 262 273 295 296 305 312 320 321 320 319 320 321
323 324 328 330 330 330 329 330 333 335 332 329 331 329 326 330 332 330 329 329 331 328 325 323 322 319 317 310 307 300 293 277 240 224 221 216 215 220 224 230 241 256 272 282 288 294 304 311 316 318 319 319 320 318
323 325 329 330 330 331 331 333 335 330 331 334 329 327 330 332 332 332 332 332 330 328 328 326 322 319 314 311 311 298 284 240 241 250 230 223 223 225 233 244 257 274 279 281 287 296 305 313 313 315 317 318 320 318
324 327 330 329 330 332 333 336 334 334 335 329 328 330 330 331 331 330 330 331 333 334 333 331 329 326 327 323 313 288 182 146 80 283 258 239 237 249 260 266 271 278 283 283 290 299 308 311 312 314 316 318 319 318
325 327 330 329 331 333 335 335 335 333 330 326 326 326 328 329 329 328 331 333 334 338 344 341 334 328 328 9 101 115 123 144 240 282 261 271 267 262 261 268 275 282 285 289 295 301 307 310 312 314 316 319 319 319
326 328 330 330 331 333 335 335 332 330 327 326 325 324 324 325 325 327 331 332 338 342 335 324 318 336 25 54 37 27 17 327 286 271 266 248 248 256 267 275 277 280 290 296 300 304 308 310 313 316 318 319 318 318
326 329 329 329 331 332 334 333 331 329 327 325 323 321 323 323 324 329 331 334 338 331 320 318 320 7 33 32 18 8 348 335 313 290 283 272 270 271 273 279 286 290 296 300 302 304 307 310 313 316 319 318 319 320
327 328 327 327 329 331 332 330 330 330 328 326 323 325 324 322 323 329 333 335 329 326 323 321 339 14 35 42 30 18 3 341 324 309 296 287 280 281 285 290 295 297 300 302 302 304 308 312 315 317 318 317 317 318
325 326 325 325 327 329 330 330 331 331 329 328 327 325 323 323 327 331 332 330 330 327 322 317 330 350 10 340 329 331 331 319 310 306 301 297 295 296 297 298 298 298 298 301 304 307 309 312 314 316 315 315 316 316
323 323 322 323 324 325 327 327 328 328 329 329 329 325 323 325 324 326 325 315 307 319 317 317 306 296 298 304 302 298 297 298 297 298 298 297 297 297 297 298 299 300 302 303 305 307 310 311 312 312 313 314 315 315
320 319 318 320 321 322 323 325 326 328 328 328 326 325 323 322 319 314 308 303 300 308 314 322 318 313 307 303 297 295 296 297 297 297 296 296 296 297 298 300 301 302 304 305 307 309 310 310 310 312 313 314 314 314
316 315 313 314 314 315 316 315 318 321 324 325 325 325 322 321 318 315 315 312 312 316 320 317 310 305 301 298 297 297 296 295 294 294 295 297 299 300 300 301 303 304 305 306 307 308 308 309 311 311 312 312 313 315
312 310 309 308 309 309 312 313 312 312 313 315 318 319 320 321 321 318 315 314 316 315 311 305 301 297 294 294 296 296 296 297 299 299 300 301 302 302 303 303 304 304 306 306 306 306 307 308 309 310 311 312 314 315
307 305 304 304 304 304 305 308 307 307 308 309 310 310 311 313 311 311 304 306 306 302 299 297 297 297 297 297 299 300 301 303 304 304 304 303 301 300 301 301 302 303 304 305 306 307 308 309 310 310 312 313 314 317
301 299 297 298 298 297 299 301 302 302 301 300 302 301 302 302 301 301 301 300 299 296 296 297 297 297 298 299 300 301 302 302 301 300 299 298 299 300 301 301 303 304 305 306 307 308 309 310 312 313 314 315 316 316
296 294 293 293 293 292 292 294 294 294 297 297 297 295 295 298 299 299 299 299 299 298 297 298 298 299 300 301 301 301 302 301 300 299 299 299 300 301 301 302 303 305 305 307 307 309 310 312 313 313 313 314 313 313
290 290 290 291 291 292 294 295 295 296 298 297 297 298 297 297 296 296 295 296 296 296 297 298 299 299 299 299 298 298 298 298 298 298 300 302 303 303 303 304 304 305 307 308 309 309 310 311 311 311 311 310 310 312
286 287 287 288 290 292 294 294 294 296 297 298 299 301 301 301 299 298 297 296 295 295 296 296 297 296 296 297 297 297 297 297 298 300 301 302 303 303 304 304 305 307 307 308 309 309 309 309 308 308 309 311 313 314
284 284 283 284 286 288 288 290 292 294 295 297 298 299 300 300 299 298 298 298 298 298 299 299 299 299 299 298 298 300 301 302 302 302 302 303 303 304 305 306 307 307 308 308 308 308 307 308 310 311 312 312 313 315